Location: Peach Mountain Observatory
(42.3967°N, 83.9367°W)
Time: 20:58:45
(UTC-05:00)

deb Explorer IX - Pass Details

Date: 28 January 2020
Orbit: 549 x 1099 km, 38.8° (Epoch: 20 February)

Event Time Altitude Azimuth Distance (km) Brightness Sun altitude
Rises 21:48:32 0° 248° (WSW) 3,620 ? -44.9°
Reaches altitude 10° 21:51:06 10° 245° (WSW) 2,744 ? -45.3°
Enters shadow 21:51:35 12° 244° (WSW) 2,579 ? -45.4°
